This is the latest recevied weather packets stored in our database for station/object PA3BWK. If no packets are shown the sender has not sent any weather packets the latest 10 day(s).
| Time | Temp. | Humidity | Pressure | Rain* | Wind** | Luminosity | Snow |
|---|---|---|---|---|---|---|---|
| 1777294712 | 16.11° C | 40% | 1024.4 hPa | 0 mm | - | 417 W/m² | - |
| 1777294653 | 16.11° C | 45% | 1024.5 hPa | 0 mm | - | 420 W/m² | - |
| 1777294593 | 16.11° C | 41% | 1024.4 hPa | 0 mm | - | 422 W/m² | - |
| 1777294532 | 16.11° C | 41% | 1024.5 hPa | 0 mm | - | 450 W/m² | - |
| 1777294472 | 16.11° C | 40% | 1024.5 hPa | 0 mm | - | 434 W/m² | - |
| 1777294412 | 16.11° C | 37% | 1024.5 hPa | 0 mm | - | 433 W/m² | - |
| 1777294362 | 16.11° C | 37% | 1024.5 hPa | 0 mm | - | 447 W/m² | - |
| 1777294292 | 16.11° C | 37% | 1024.5 hPa | 0 mm | - | 454 W/m² | - |
| 1777294232 | 16.11° C | 37% | 1024.4 hPa | 0 mm | - | 466 W/m² | - |
| 1777294172 | 16.11° C | 38% | 1024.4 hPa | 0 mm | - | 441 W/m² | - |
| 1777294112 | 15.56° C | 38% | 1024.5 hPa | 0 mm | - | 433 W/m² | - |
| 1777294052 | 15.56° C | 41% | 1024.4 hPa | 0 mm | - | 433 W/m² | - |
| 1777293994 | 15.56° C | 37% | 1024.4 hPa | 0 mm | - | 454 W/m² | - |
| 1777293933 | 15.56° C | 36% | 1024.5 hPa | 0 mm | - | 445 W/m² | - |
| 1777293872 | 15.56° C | 36% | 1024.5 hPa | 0 mm | - | 459 W/m² | - |
| 1777293813 | 16.11° C | 35% | 1024.5 hPa | 0 mm | - | 468 W/m² | - |
| 1777293752 | 16.11° C | 36% | 1024.6 hPa | 0 mm | - | 427 W/m² | - |
| 1777293692 | 16.11° C | 38% | 1024.5 hPa | 0 mm | - | 433 W/m² | - |
| 1777293634 | 16.11° C | 35% | 1024.5 hPa | 0 mm | - | 417 W/m² | - |
| 1777293574 | 16.11° C | 34% | 1024.6 hPa | 0 mm | - | 417 W/m² | - |
| 1777293514 | 16.11° C | 38% | 1024.6 hPa | 0 mm | - | 420 W/m² | - |
| 1777293453 | 16.11° C | 34% | 1024.6 hPa | 0 mm | - | 405 W/m² | - |
| 1777293392 | 15.56° C | 36% | 1024.7 hPa | 0 mm | - | 410 W/m² | - |
| 1777293332 | 15.56° C | 33% | 1024.7 hPa | 0 mm | - | 394 W/m² | - |
| 1777293272 | 15.56° C | 35% | 1024.7 hPa | 0 mm | - | 399 W/m² | - |
* Rain latest hour (hover to see other rain measurements)
** Current wind speed in m/s (hover to see current wind gust speed)